Sauk Centre, MN

10:19 AM CST on December 13, 2019 (GMT -0600)
Sauk Centre

Weather History for KD39 - September, 2019

Change the Weather History Date:

Friday, September 13, 2019

  Actual Average (WUND) Record (WUND)
Temperature  
Mean Temperature 52 °F -  
Max Temperature 58 °F - - (-1)
Min Temperature 48 °F - - (-1)
Degree Days  
Heating Degree Days 12    
Growing Degree Days 2 (Base 50)    
Moisture  
Dew Point 50 °F    
Average Humidity 89    
Maximum Humidity 97    
Minimum Humidity 76    
Precipitation  
Precipitation 0.01 in - - ()
Sea Level Pressure  
Sea Level Pressure 29.94 in    
Wind  
Wind Speed 11 mph ()    
Max Wind Speed 23 mph    
Max Gust Speed 31 mph    
Visibility 9.1 miles    
Events Rain    
Averages and records for this station are not official NWS values.
T = Trace of Precipitation, MM = Missing Value Source: Averaged Metar Reports

Daily Weather History Graph

Daily Weather History Graph

Search for Another Location

Airport or City:

Astronomy

Sep. 13, 2019 Rise Set
Actual Time 6:55 AM CDT 7:35 PM CDT
Civil Twilight 6:25 AM CDT 8:05 PM CDT
Nautical Twilight 5:49 AM CDT 8:40 PM CDT
Astronomical Twilight 5:12 AM CDT 9:17 PM CDT
Moon 7:52 PM CDT 6:07 AM CDT
Length of Visible Light 13h 39m
Length of Day
12h 39m
Full, 100% of the Moon is Illuminated
Sep 13
Full
Sep 13
Full
Sep 21
Last Quarter
Sep 28
New
Oct 5
First Quarter

Hourly Weather History & Observations

Time (CDT) Temp. Dew Point Humidity Pressure Visibility Wind Dir Wind Speed Gust Speed Precip Events Conditions
12:17 AM 55.8 °F 54.7 °F 96% 29.81 in 10.0 mi West 5.8 mph - N/A   Overcast
12:38 AM 55.4 °F 54.5 °F 97% 29.81 in 10.0 mi WSW 4.6 mph - N/A   Overcast
12:56 AM 55.2 °F 54.0 °F 96% 29.81 in 10.0 mi West 4.6 mph - N/A   Drizzle
1:15 AM 54.5 °F 53.6 °F 97% 29.81 in 10.0 mi West 5.8 mph - N/A   Overcast
1:35 AM 54.5 °F 53.6 °F 97% 29.82 in 10.0 mi WSW 5.8 mph - N/A   Overcast
1:36 AM 54.5 °F 53.6 °F 97% 29.82 in 10.0 mi WSW 5.8 mph - N/A   Overcast
1:59 AM 54.5 °F 53.4 °F 96% 29.82 in 10.0 mi WSW 13.8 mph - N/A   Overcast
2:16 AM 54.1 °F 52.9 °F 95% 29.82 in 10.0 mi West 10.4 mph - N/A   Overcast
2:36 AM 54.1 °F 52.9 °F 95% 29.82 in 10.0 mi West 10.4 mph - 0.01 in   Overcast
2:55 AM 54.0 °F 52.9 °F 96% 29.82 in 10.0 mi WSW 9.2 mph - 0.01 in   Overcast
2:56 AM 54.0 °F 52.9 °F 96% 29.82 in 10.0 mi WSW 10.4 mph - 0.01 in   Overcast
3:19 AM 54.0 °F 53.2 °F 97% 29.82 in 5.0 mi West 9.2 mph - N/A   Light Drizzle
3:36 AM 53.8 °F 53.1 °F 97% 29.81 in 2.5 mi West 12.7 mph 16.1 mph N/A   Overcast
3:56 AM 53.1 °F 52.2 °F 97% 29.81 in 10.0 mi West 12.7 mph 18.4 mph N/A   Overcast
4:15 AM 52.9 °F 52.0 °F 97% 29.81 in 10.0 mi West 10.4 mph - N/A   Overcast
4:16 AM 52.9 °F 52.0 °F 97% 29.81 in 10.0 mi West 9.2 mph - N/A   Overcast
4:35 AM 52.7 °F 51.8 °F 97% 29.81 in 10.0 mi West 11.5 mph 16.1 mph N/A   Overcast
4:39 AM 52.7 °F 51.8 °F 97% 29.81 in 10.0 mi West 9.2 mph 16.1 mph N/A   Overcast
4:57 AM 52.7 °F 51.8 °F 97% 29.81 in 3.0 mi WSW 13.8 mph 17.3 mph N/A   Overcast
5:15 AM 51.8 °F 50.9 °F 97% 29.81 in 10.0 mi West 12.7 mph 17.3 mph N/A   Overcast
5:35 AM 50.9 °F 49.3 °F 94% 29.82 in 10.0 mi West 16.1 mph 25.3 mph N/A   Overcast
5:55 AM 50.4 °F 48.6 °F 94% 29.83 in 10.0 mi West 10.4 mph - N/A   Overcast
5:56 AM 50.2 °F 48.6 °F 94% 29.83 in 10.0 mi West 11.5 mph 16.1 mph N/A   Overcast
6:19 AM 50.0 °F 49.1 °F 97% 29.85 in 7.0 mi West 12.7 mph 19.6 mph N/A   Overcast
6:37 AM 49.5 °F 47.8 °F 94% 29.85 in 10.0 mi West 15.0 mph 20.7 mph N/A   Overcast
6:56 AM 49.5 °F 48.2 °F 95% 29.86 in 3.0 mi West 13.8 mph 20.7 mph N/A Rain Rain
7:15 AM 49.1 °F 47.8 °F 95% 29.86 in 7.0 mi West 15.0 mph 23.0 mph N/A   Overcast
7:16 AM 49.1 °F 47.8 °F 95% 29.86 in 7.0 mi West 16.1 mph 23.0 mph N/A   Overcast
7:35 AM 49.5 °F 48.2 °F 95% 29.87 in 10.0 mi West 12.7 mph 21.9 mph N/A   Overcast
7:39 AM 49.3 °F 48.0 °F 95% 29.88 in 10.0 mi West 13.8 mph 21.9 mph N/A   Overcast
7:58 AM 49.5 °F 47.7 °F 94% 29.89 in 10.0 mi West 11.5 mph 17.3 mph N/A   Overcast
8:15 AM 49.5 °F 48.2 °F 95% 29.89 in 3.0 mi West 13.8 mph 18.4 mph N/A   Overcast
8:35 AM 49.6 °F 48.2 °F 95% 29.89 in 10.0 mi West 15.0 mph 23.0 mph N/A   Overcast
8:36 AM 49.6 °F 48.0 °F 94% 29.89 in 10.0 mi West 15.0 mph 23.0 mph N/A   Overcast
8:55 AM 49.5 °F 47.5 °F 93% 29.89 in 10.0 mi West 16.1 mph 25.3 mph N/A   Overcast
8:56 AM 49.5 °F 47.5 °F 93% 29.89 in 10.0 mi West 16.1 mph 25.3 mph N/A   Overcast
9:15 AM 50.0 °F 48.2 °F 94% 29.91 in 4.0 mi West 13.8 mph 21.9 mph N/A   Overcast
9:19 AM 50.0 °F 48.2 °F 94% 29.91 in 10.0 mi West 17.3 mph 21.9 mph N/A   Overcast
9:38 AM 50.0 °F 48.2 °F 94% 29.91 in 2.5 mi West 17.3 mph 24.2 mph N/A Rain Light Rain
9:55 AM 50.4 °F 47.7 °F 90% 29.91 in 10.0 mi West 16.1 mph 27.6 mph N/A   Overcast
10:15 AM 50.4 °F 48.2 °F 92% 29.92 in 3.0 mi West 17.3 mph 23.0 mph N/A   Overcast
10:35 AM 51.3 °F 48.6 °F 90% 29.93 in 7.0 mi West 19.6 mph 24.2 mph N/A   Overcast
10:36 AM 51.3 °F 48.4 °F 90% 29.93 in 7.0 mi West 18.4 mph 24.2 mph N/A   Overcast
10:59 AM 52.0 °F 48.4 °F 88% 29.94 in 10.0 mi West 17.3 mph 25.3 mph N/A   Overcast
11:16 AM 52.5 °F 48.9 °F 88% 29.94 in 10.0 mi West 18.4 mph 26.5 mph N/A   Overcast
11:36 AM 54.3 °F 49.3 °F 83% 29.95 in 10.0 mi West 17.3 mph 25.3 mph N/A   Mostly Cloudy
11:55 AM 52.5 °F 48.2 °F 85% 29.96 in 7.0 mi West 16.1 mph 24.2 mph N/A   Overcast
11:56 AM 52.5 °F 48.4 °F 86% 29.95 in 7.0 mi West 19.6 mph 25.3 mph N/A   Overcast
12:15 PM 53.6 °F 48.9 °F 84% 29.95 in 10.0 mi West 15.0 mph 20.7 mph N/A   Overcast
12:19 PM 54.0 °F 48.9 °F 83% 29.95 in 10.0 mi West 16.1 mph 20.7 mph N/A   Overcast
12:37 PM 54.5 °F 48.2 °F 79% 29.97 in 10.0 mi West 16.1 mph 31.1 mph N/A   Overcast
12:55 PM 54.3 °F 48.2 °F 80% 29.97 in 10.0 mi West 18.4 mph 27.6 mph N/A   Overcast
1:15 PM 52.9 °F 48.2 °F 84% 29.97 in 10.0 mi West 19.6 mph 26.5 mph N/A   Overcast
1:16 PM 52.9 °F 48.2 °F 84% 29.97 in 10.0 mi West 18.4 mph 26.5 mph N/A   Overcast
1:35 PM 54.7 °F 48.4 °F 79% 29.97 in 10.0 mi West 23.0 mph 31.1 mph N/A   Overcast
1:36 PM 54.5 °F 48.4 °F 80% 29.98 in 10.0 mi West 19.6 mph 31.1 mph N/A   Overcast
1:58 PM 52.2 °F 49.3 °F 90% 29.99 in 3.0 mi West 18.4 mph 26.5 mph N/A   Overcast
2:16 PM 51.8 °F 49.5 °F 92% 29.99 in 3.0 mi West 18.4 mph 25.3 mph N/A   Overcast
2:35 PM 52.7 °F 49.8 °F 90% 29.99 in 10.0 mi West 17.3 mph 25.3 mph N/A   Overcast
2:36 PM 52.7 °F 49.8 °F 90% 29.99 in 10.0 mi West 18.4 mph 25.3 mph N/A   Overcast
2:55 PM 54.5 °F 48.9 °F 81% 29.99 in 10.0 mi West 19.6 mph 27.6 mph N/A   Overcast
2:56 PM 54.7 °F 48.9 °F 81% 29.99 in 10.0 mi West 18.4 mph 27.6 mph N/A   Overcast
3:19 PM 55.6 °F 49.1 °F 79% 30.00 in 10.0 mi West 15.0 mph 23.0 mph N/A   Overcast
3:36 PM 55.4 °F 48.6 °F 78% 30.00 in 10.0 mi West 15.0 mph 21.9 mph N/A   Overcast
3:56 PM 55.4 °F 48.2 °F 77% 30.00 in 10.0 mi West 16.1 mph 24.2 mph N/A   Overcast
4:15 PM 56.3 °F 48.9 °F 76% 30.01 in 10.0 mi West 12.7 mph 19.6 mph N/A   Overcast
4:16 PM 56.3 °F 48.9 °F 76% 30.01 in 10.0 mi West 13.8 mph 19.6 mph N/A   Overcast
4:35 PM 55.9 °F 49.6 °F 79% 30.02 in 10.0 mi West 10.4 mph 19.6 mph N/A   Overcast
4:40 PM 56.3 °F 49.6 °F 78% 30.02 in 10.0 mi West 15.0 mph 25.3 mph N/A   Overcast
4:57 PM 56.3 °F 50.0 °F 79% 30.02 in 10.0 mi West 11.5 mph 19.6 mph N/A   Overcast
5:15 PM 56.5 °F 50.2 °F 79% 30.02 in 10.0 mi West 15.0 mph 19.6 mph N/A   Overcast
5:35 PM 57.6 °F 50.2 °F 76% 30.01 in 10.0 mi West 12.7 mph 17.3 mph N/A   Overcast
5:36 PM 57.6 °F 50.2 °F 76% 30.02 in 10.0 mi West 10.4 mph 17.3 mph N/A   Overcast
5:55 PM 57.6 °F 50.4 °F 77% 30.01 in 10.0 mi West 13.8 mph 18.4 mph N/A   Mostly Cloudy
5:56 PM 57.6 °F 50.4 °F 77% 30.01 in 10.0 mi West 12.7 mph 18.4 mph N/A   Mostly Cloudy
6:15 PM 56.8 °F 50.2 °F 78% 30.02 in 10.0 mi West 11.5 mph 19.6 mph N/A   Overcast
6:16 PM 56.8 °F 50.2 °F 78% 30.02 in 10.0 mi West 11.5 mph 17.3 mph N/A   Overcast
6:38 PM 56.5 °F 50.5 °F 80% 30.02 in 10.0 mi West 10.4 mph - N/A   Overcast
6:57 PM 56.3 °F 50.7 °F 82% 30.02 in 10.0 mi West 8.1 mph - N/A   Overcast
7:16 PM 55.8 °F 50.7 °F 83% 30.02 in 10.0 mi WSW 8.1 mph - N/A   Overcast
7:35 PM 55.4 °F 50.5 °F 84% 30.03 in 10.0 mi WSW 8.1 mph - N/A   Overcast
7:36 PM 55.4 °F 50.4 °F 83% 30.03 in 10.0 mi WSW 8.1 mph - N/A   Overcast
7:55 PM 54.5 °F 50.2 °F 85% 30.04 in 10.0 mi WSW 8.1 mph - N/A   Mostly Cloudy
7:59 PM 54.5 °F 50.0 °F 85% 30.04 in 10.0 mi WSW 6.9 mph - N/A   Mostly Cloudy
8:17 PM 54.0 °F 49.6 °F 85% 30.04 in 10.0 mi WSW 9.2 mph - N/A   Mostly Cloudy
8:36 PM 53.8 °F 49.1 °F 84% 30.05 in 10.0 mi WSW 8.1 mph - N/A   Scattered Clouds
8:55 PM 52.7 °F 48.7 °F 86% 30.05 in 10.0 mi WSW 8.1 mph - N/A   Clear
8:56 PM 52.5 °F 48.7 °F 87% 30.05 in 10.0 mi WSW 8.1 mph - N/A   Clear
9:15 PM 52.0 °F 48.4 °F 88% 30.05 in 10.0 mi WSW 5.8 mph - N/A   Clear
9:20 PM 51.8 °F 48.2 °F 88% 30.05 in 10.0 mi WSW 4.6 mph - N/A   Clear
9:35 PM 51.3 °F 48.2 °F 89% 30.06 in 10.0 mi SW 3.5 mph - N/A   Clear
9:57 PM 50.0 °F 47.7 °F 92% 30.06 in 10.0 mi SW 5.8 mph - N/A   Clear
10:15 PM 50.0 °F 47.5 °F 91% 30.06 in 10.0 mi SW 3.5 mph - N/A   Clear
10:35 PM 49.6 °F 47.3 °F 92% 30.07 in 10.0 mi SW 4.6 mph - N/A   Clear
10:36 PM 49.5 °F 47.3 °F 92% 30.07 in 10.0 mi SW 4.6 mph - N/A   Clear
10:55 PM 49.1 °F 47.1 °F 93% 30.07 in 10.0 mi SW 4.6 mph - N/A   Clear
10:56 PM 49.1 °F 47.1 °F 93% 30.07 in 10.0 mi SW 4.6 mph - N/A   Clear
11:18 PM 49.6 °F 47.3 °F 92% 30.07 in 10.0 mi SW 5.8 mph - N/A   Clear
11:36 PM 48.7 °F 46.8 °F 93% 30.07 in 10.0 mi Calm Calm - N/A   Clear
11:56 PM 48.6 °F 46.8 °F 93% 30.07 in 10.0 mi SW 3.5 mph - N/A   Clear